Regional Weather Roundup
Issued by NWS

Home | Current Version | Previous Version | Text Only | Print | Product List | Glossary Off
Versions: 1 2 3 4 5 6 7 8 9 10 11 12 13 14 15 16 17 18 19 20 21 22 23 24 25 26 27 28 29 30 31 32 33 34 35 36 37 38 39 40 41 42 43 44 45 46 47 48

000
ASUS45 KCYS 060510
RWRWY

WYOMING REGIONAL WEATHER ROUNDUP
NATIONAL WEATHER SERVICE CHEYENNE WY
1000 PM MST FRI FEB 05 2016

NOTE:  "FAIR" INDICATES FEW OR NO CLOUDS BELOW 12,000 FEET
WITH NO SIGNIFICANT WEATHER AND/OR OBSTRUCTIONS TO VISIBILITY.

WYZ001-060600-
YELLOWSTONE NATIONAL PARK

CITY           SKY/WX    TMP DP  RH WIND       PRES   REMARKS
LK YELLOWSTONE   N/A     18  15  88 CALM      30.37F
W YELLOWSTONE  NOT AVBL

$$
WYZ002>013-054>058-071-098>099-060600-
NORTHERN WYOMING

CITY           SKY/WX    TMP DP  RH WIND       PRES   REMARKS
JACKSON        CLOUDY    10   9  92 N7        30.42F WCI   0
CODY           FAIR      37  16  41 W17G40    30.16S WCI  28
GREYBULL       FAIR      21  15  78 S3        30.23F
WORLAND        FAIR      20  13  74 S7        30.24S WCI  11
SHERIDAN       FAIR      21  13  71 S6        30.11R WCI  13
BUFFALO        FAIR      30  11  45 S7        30.12F WCI  23
GILLETTE       FAIR      28  13  53 SW15      30.13F WCI  16
HULETT         FAIR      30  18  59 SW10      30.13F WCI  21
NEWCASTLE      FAIR      21  14  73 SE6       30.19F WCI  14

$$
WYZ014>020-022>026-101>103-060600-
CENTRAL WYOMING

CITY           SKY/WX    TMP DP  RH WIND       PRES   REMARKS
BIG PINEY      FAIR      14   8  77 N9        30.38S WCI   2
PINEDALE       FAIR      19  14  79 W21       30.36S WCI   3
DUBOIS         FAIR      23  14  68 NW22      30.28F WCI   8
LANDER         FAIR      20  10  65 CALM      30.21F
RIVERTON       FAIR      20  10  65 W13       30.23F WCI   7
CASPER         FAIR      23  15  71 SW24G30   30.23F WCI   7
DOUGLAS        FAIR      19  11  70 W6          N/A  WCI  11

$$
WYZ021-027>030-104>119-060600-
SOUTHERN WYOMING

CITY           SKY/WX    TMP DP  RH WIND       PRES   REMARKS
EVANSTON       MOCLDY    22  16  78 W13       30.46R WCI  10
FORT BRIDGER   CLOUDY    23  19  86 W16       30.47R WCI  10
ROCK SPRINGS   FAIR      22  15  75 W28       30.36S WCI   4
DIXON          CLOUDY    17  12  80 CALM      30.46F
RAWLINS        FAIR      21  13  71 SW18G32   30.33F WCI   6
SARATOGA       FAIR      10   3  72 SE7       30.37S WCI   0
LARAMIE        FAIR      17   6  62 SW21      30.25F WCI   0
CHEYENNE       FAIR      24   9  52 W18G28    30.23S WCI  10
TORRINGTON     FAIR      22  14  71 SW5       30.23F WCI  16
PINE BLUFFS    FAIR      23  10  58 W16       30.24F WCI  10

$$



USA.gov is the U.S. government's official web portal to all federal, state and local government web resources and services.